Погода в Тринидаде

Уругвай     33°30′46″S   56°54′33″W
темп.,
°C
ветер,
м/с
пор.,
м/с
влажн.,
%
обл.,
%
осадки,
мм/ч
давл.,
гПа
погр.,
м
9 августа, вт
вт900:00+9вюв496891 0.0 1029225
03:00+8вюв387995 0.0 1029227
06:00+6юв377979 0.0 1029189
09:00+8юв4977100 0.0 1031279
12:00+13юв67536 0.0 10311152
15:00+14юв56495 0.0 10291543
18:00+10юв34685 0.0 102962
21:00+6юв49784 0.0 1031164
10 августа, ср
ср1000:00+5вюв48880 0.0 1031138
03:00+4вюв34940 0.0 103062
06:00+3всв34930 0.0 102953
09:00+6в23810 0.0 1029135
12:00+12всв34549 0.0 1028738
15:00+14св4447100 0.0 10261026
18:00+10ссв3466100 0.0 102543
21:00+7св3481100 0.0 102655
11 августа, чт
чт1100:00+6св36895 0.0 102693
03:00+5ссв36930 0.0 1025100
06:00+4ссв35940 0.0 102585
09:00+7ссв47850 0.0 1026191
12:00+14с57630 0.0 1025824
15:00+16с57540 0.0 10221205
18:00+12ссв35770 0.0 102167
21:00+9ссв46900 0.0 102185
12 августа, пт
пт1200:00+8св47935 0.0 1021123
03:00+8св41196100 0.0 1020209
06:00+8св41096100 0.0 1019217
09:00+10св41090100 0.0 1020282
12:00+16ссв6869100 0.0 1018630
15:00+18с5763100 0.0 10151250
18:00+15с358369 0.1 101573
21:00+12ссв369381 0.1 101694
13 августа, сб
сб1300:00+12ссв37961 0.0 1017131
03:00+11с33960 0.0 101748
06:00+10с33950 0.0 101734
09:00+13ссв12880 0.0 101892
12:00+19св32690 0.0 1018656
15:00+20св33610 0.0 10161052
18:00+16св35800 0.0 101679
21:00+13всв46900 0.0 101688